Location: Aulus
(42.7909°N, 1.3399°E)
Time: 21:37:30
(UTC+00:00)

NOSS 3-1 (A) - Pass Details

Date: 19 May 2025
Orbit: 667 x 1541 km, 63.4° (Epoch: 14 June)

Event Time Altitude Azimuth Distance (km) Brightness Sun altitude
Exits shadow 22:37:13 13° 244° (WSW) 1,981 5.1 -25.0°
Maximum altitude 22:41:22 45° 315° (NW) 1,058 4.0 -25.2°
Drops below altitude 10° 22:46:56 10° 28° (NNE) 2,577 6.3 -25.5°
Sets 22:49:51 0° 34° (NE) 3,663 7.1 -25.7°
